Wind_Speed
4 3 4 4 6 8 9 11 13 14 16 16 19 18 18 18 18 20 20 22 21 23 23 23 25 25 27 26 28 35 41 43 43 45 38 32 32 36 40 40 42 43 35
2 4 6 8 10 11 12 12 13 14 17 18 17 19 19 20 20 22 21 21 22 23 25 27 27 27 28 28 31 32 31 32 37 42 42 42 46 41 34 38 41 39 33
3 4 4 8 11 11 12 13 14 15 15 15 18 21 23 22 25 21 22 23 24 26 28 31 33 30 30 32 35 33 32 34 36 38 38 39 38 43 45 38 30 32 38
8 8 8 6 8 9 11 10 9 13 16 17 21 24 25 21 19 17 16 19 22 23 23 24 25 28 30 31 32 33 33 36 36 37 37 32 31 35 34 37 47 33 30
9 7 8 6 7 9 9 11 13 14 17 23 25 23 15 14 14 16 16 20 24 28 29 31 31 31 30 29 29 28 29 36 38 39 37 33 28 25 34 31 31 28 32
9 10 11 10 10 13 14 16 17 20 23 23 21 12 11 13 14 15 17 24 28 32 34 34 35 35 35 34 30 28 29 30 34 36 34 33 32 31 31 29 31 40 23
10 10 14 15 15 16 18 20 20 20 18 19 8 11 14 16 18 20 24 26 29 28 29 32 33 32 33 37 36 33 32 30 31 32 35 37 36 37 32 30 27 36 41
11 12 15 17 19 20 19 19 15 14 13 9 11 12 14 17 19 27 26 22 24 27 31 38 38 36 35 35 39 38 32 31 30 31 32 32 35 32 28 26 27 31 36
11 12 12 13 13 11 10 9 9 11 10 11 14 16 18 18 23 26 19 23 30 31 34 35 37 37 32 29 27 37 39 34 30 27 28 30 28 28 27 27 28 24 21
12 12 10 9 7 5 7 8 9 10 11 13 16 17 19 21 25 18 22 28 32 35 35 33 30 29 29 26 28 29 39 36 32 28 31 29 25 26 26 29 29 28 30
13 12 8 7 5 5 6 7 9 11 13 14 17 18 20 22 25 16 23 29 29 31 29 40 32 35 34 29 26 25 30 33 34 33 33 30 27 27 25 28 29 30 32
13 13 8 5 3 3 6 8 10 13 16 17 20 20 20 22 22 18 26 21 24 25 30 32 34 29 30 28 26 20 22 25 31 36 40 40 36 29 28 25 30 31 33
14 16 11 6 4 5 8 9 11 12 13 16 19 22 23 23 24 18 23 24 22 24 26 30 29 32 34 27 26 19 15 12 22 29 33 35 35 30 27 27 25 24 28
16 20 19 13 7 5 7 10 10 12 15 17 19 23 25 26 27 22 22 19 22 24 22 26 32 33 34 36 33 27 20 13 13 17 19 18 17 19 19 19 21 23 27
16 15 18 23 20 13 13 16 14 17 17 15 18 19 23 24 23 16 18 25 21 24 28 28 29 37 34 32 33 35 31 27 18 13 7 5 6 11 15 12 18 26 30
15 11 13 15 16 19 20 19 20 18 22 18 14 13 14 18 16 12 10 14 20 23 28 34 37 38 41 37 33 32 34 31 17 9 3 5 7 6 8 6 3 14 23
13 11 10 12 15 11 16 17 20 21 20 22 18 15 16 19 18 15 14 13 18 26 32 36 39 40 43 39 40 29 34 31 29 11 7 8 10 13 15 11 8 11 20
10 8 9 11 13 12 14 15 15 22 23 23 22 20 19 17 19 21 20 21 25 31 34 38 39 41 41 41 42 34 29 32 25 25 14 8 12 14 15 13 13 14 21
7 8 7 7 10 11 11 14 16 17 20 23 23 23 21 22 20 22 25 27 30 31 33 36 38 38 43 43 44 42 36 30 23 21 17 12 9 10 11 11 13 19 23
6 7 6 4 5 9 10 11 12 17 18 21 26 29 27 24 27 29 28 28 29 30 31 31 35 37 41 44 44 45 40 38 29 23 19 16 15 11 11 13 14 21 22
8 7 5 5 6 9 10 11 12 15 18 19 21 24 28 28 30 30 30 29 29 29 30 31 32 34 36 40 41 43 44 43 39 26 22 19 17 14 3 8 11 17 25
10 8 8 8 8 9 11 9 13 15 16 17 19 22 26 26 29 29 29 29 28 28 27 28 31 33 35 38 40 42 42 41 43 43 31 20 18 12 11 11 17 24 24
13 11 10 11 11 11 13 14 14 17 17 18 19 22 26 27 28 28 29 28 28 29 28 28 30 31 31 34 36 37 40 40 40 39 40 32 20 13 10 18 24 23 24
17 16 15 12 14 17 17 16 16 17 19 19 20 23 25 27 28 28 28 28 28 28 29 29 29 31 31 32 33 34 33 34 34 33 36 33 26 10 12 20 18 20 23
18 18 19 20 17 18 19 18 18 19 20 20 20 22 25 27 28 28 28 28 28 28 28 29 30 29 30 31 31 31 33 29 27 30 31 32 28 17 19 15 24 17 17
19 18 18 19 18 17 19 19 19 18 20 21 20 21 24 27 27 27 28 29 29 28 28 29 29 29 29 31 32 32 32 32 26 23 24 30 30 21 19 18 13 7 7
Wind_Direction
62 25 354 340 335 333 333 330 325 326 324 325 326 326 321 318 316 318 317 314 305 305 304 296 298 299 292 288 285 283 279 277 283 284 282 279 277 272 269 266 268 266 280
54 347 331 326 324 327 326 326 328 329 330 327 321 325 320 318 315 313 307 306 301 301 299 295 296 297 292 287 292 293 286 284 291 292 288 283 279 274 277 274 273 266 268
274 273 296 312 318 321 322 329 333 331 320 309 315 316 316 314 315 315 313 311 310 303 297 292 292 293 286 286 291 291 288 287 291 289 287 285 283 281 270 266 276 274 263
286 283 282 291 308 311 318 321 305 303 305 305 310 312 312 314 320 323 328 323 317 315 312 307 302 297 294 294 290 288 287 286 286 287 286 284 281 270 274 272 266 278 269
284 275 252 259 267 264 267 279 287 291 297 303 307 312 322 325 333 333 331 325 323 318 314 311 305 297 292 288 287 294 291 287 284 283 278 277 271 269 267 271 263 273 264
272 242 239 247 256 264 271 278 287 296 303 305 314 326 333 332 334 328 326 327 320 314 316 318 316 309 298 286 279 282 284 278 277 271 274 276 274 274 279 276 269 251 287
287 272 256 258 264 270 277 285 296 303 313 325 345 331 324 330 337 335 328 319 318 325 327 325 323 324 316 295 284 273 273 277 279 278 272 271 270 274 278 275 266 252 256
294 285 278 274 272 275 282 288 293 312 329 340 327 324 321 331 335 336 325 327 328 332 325 326 319 317 315 316 285 280 276 268 272 273 272 279 275 274 268 268 275 272 261
315 308 299 289 288 287 287 302 319 324 327 315 324 329 326 326 337 332 329 333 336 339 337 333 327 321 315 308 290 268 272 269 267 269 272 271 267 269 264 266 266 263 266
340 329 320 309 310 317 314 332 326 319 312 304 305 319 324 331 336 335 338 338 339 337 339 347 347 342 329 311 310 278 267 264 266 266 273 272 265 263 262 250 253 254 251
353 344 334 322 312 315 322 308 315 303 296 301 307 313 325 334 335 337 343 345 340 338 349 350 2 360 345 329 313 286 268 264 267 271 272 274 269 264 261 249 245 243 242
8 0 347 330 329 303 297 307 301 296 301 308 307 316 328 336 339 348 345 348 337 339 348 356 359 2 359 345 334 309 282 259 263 269 269 271 270 264 256 263 248 239 232
31 25 17 2 323 317 325 318 320 311 324 334 334 338 339 344 352 353 359 344 343 345 346 10 13 24 22 7 2 358 345 300 268 263 263 267 267 262 255 263 245 236 226
40 36 30 27 16 358 349 352 348 340 343 344 335 345 351 352 355 359 360 354 5 2 8 24 24 26 26 24 13 358 347 331 306 291 278 280 269 259 253 232 231 214 218
44 45 35 35 41 51 42 35 32 16 360 348 349 351 349 354 2 2 16 18 15 23 19 16 14 17 10 14 14 18 8 350 317 311 283 272 235 232 234 256 215 206 208
37 47 35 44 39 46 52 50 44 39 36 29 14 1 2 8 1 8 14 5 17 30 33 26 24 24 17 17 3 -0 11 21 344 319 142 155 202 268 304 323 272 202 199
39 38 43 57 35 39 38 35 34 35 34 33 35 27 26 22 19 22 28 27 27 30 38 37 27 22 23 22 22 17 14 15 29 310 303 247 229 263 288 290 257 215 207
50 37 57 51 57 56 47 42 42 29 23 24 29 31 27 21 22 35 36 31 31 34 33 31 30 21 24 18 28 27 16 14 25 31 25 292 286 277 277 267 240 236 202
42 32 34 58 62 53 51 57 50 30 27 23 21 28 30 28 28 31 37 40 36 33 30 28 28 22 24 23 22 24 26 19 16 28 35 36 18 281 257 239 228 197 188
12 10 3 41 43 39 47 46 32 29 29 29 25 21 23 25 27 29 31 33 33 29 27 24 23 21 19 20 19 21 25 30 27 24 28 23 29 25 205 204 198 195 193
14 17 22 24 26 29 38 36 28 27 30 27 28 23 26 32 30 30 31 30 28 26 20 19 17 16 17 18 16 18 20 23 26 32 24 30 30 49 178 197 203 186 184
28 30 32 35 33 29 31 32 26 27 28 24 22 23 26 30 29 27 29 28 28 27 23 18 15 13 13 13 13 16 15 17 21 23 26 45 36 47 94 172 195 192 194
36 42 49 53 52 48 41 38 31 28 32 28 23 22 23 24 24 24 23 24 24 22 24 22 18 15 12 10 12 14 13 12 19 18 20 35 45 37 82 107 164 175 172
39 49 47 50 57 46 42 41 39 35 34 30 27 24 23 21 19 20 19 18 21 21 19 20 20 15 12 10 9 11 13 13 14 13 20 31 43 107 89 104 122 149 153
32 37 38 38 40 35 29 28 31 28 27 26 23 20 18 16 15 15 15 16 15 15 15 14 15 16 10 10 9 7 8 16 14 11 17 32 43 100 131 110 128 114 123
25 25 29 29 29 21 18 18 19 18 16 15 13 12 10 9 9 8 9 9 9 10 10 9 9 9 10 9 8 6 6 7 13 14 10 28 35 64 87 161 148 151 159
Height
1485 1486 1487 1488 1488 1487 1487 1486 1484 1483 1482 1481 1480 1478 1476 1473 1471 1469 1467 1464 1462 1459 1455 1452 1448 1444 1441 1439 1438 1437 1435 1434 1424 1420 1422 1423 1423 1423 1423 1423 1424 1425 1423
1485 1486 1487 1486 1486 1484 1484 1483 1482 1480 1479 1478 1476 1475 1472 1469 1467 1464 1461 1459 1456 1451 1449 1446 1441 1438 1434 1432 1430 1427 1425 1422 1418 1410 1411 1412 1411 1413 1412 1411 1414 1415 1416
1484 1486 1486 1485 1484 1483 1483 1482 1480 1478 1477 1475 1474 1471 1468 1465 1462 1459 1456 1452 1447 1444 1441 1437 1432 1430 1426 1424 1421 1418 1415 1413 1409 1405 1400 1400 1399 1400 1401 1403 1405 1405 1408
1481 1481 1481 1482 1482 1482 1481 1479 1477 1475 1473 1472 1469 1466 1463 1459 1457 1453 1449 1445 1442 1437 1433 1429 1425 1422 1419 1416 1413 1410 1408 1405 1402 1398 1396 1396 1396 1396 1395 1396 1396 1400 1398
1479 1479 1478 1478 1477 1476 1475 1474 1472 1471 1469 1467 1464 1460 1456 1454 1452 1448 1444 1440 1435 1430 1425 1421 1417 1414 1410 1407 1404 1401 1398 1396 1393 1390 1387 1387 1388 1389 1389 1389 1390 1393 1390
1475 1475 1475 1475 1474 1471 1470 1468 1467 1466 1464 1460 1457 1454 1452 1450 1447 1444 1439 1434 1428 1422 1416 1411 1406 1401 1397 1395 1394 1392 1391 1388 1385 1383 1380 1379 1379 1379 1381 1381 1382 1385 1383
1472 1471 1470 1470 1469 1467 1466 1464 1463 1460 1457 1454 1451 1450 1448 1446 1442 1437 1432 1427 1421 1415 1410 1404 1398 1392 1387 1382 1380 1380 1380 1379 1377 1376 1372 1372 1371 1372 1374 1373 1374 1375 1373
1468 1467 1465 1464 1463 1463 1461 1460 1458 1455 1452 1450 1449 1447 1444 1441 1437 1431 1426 1421 1415 1410 1404 1396 1389 1383 1378 1371 1367 1367 1367 1367 1367 1367 1366 1364 1364 1364 1366 1367 1368 1367 1368
1465 1463 1461 1459 1458 1457 1456 1455 1453 1451 1449 1448 1445 1442 1439 1435 1431 1426 1420 1415 1409 1402 1396 1390 1382 1373 1368 1363 1358 1355 1355 1355 1356 1358 1357 1357 1357 1357 1359 1361 1360 1363 1361
1463 1460 1457 1455 1454 1454 1453 1452 1451 1449 1447 1444 1441 1438 1434 1430 1426 1421 1415 1409 1402 1397 1393 1383 1373 1365 1358 1353 1349 1345 1343 1343 1346 1347 1347 1347 1348 1349 1351 1352 1354 1356 1357
1461 1458 1456 1454 1453 1452 1451 1450 1448 1446 1442 1440 1437 1433 1430 1425 1421 1417 1411 1404 1397 1392 1385 1377 1367 1360 1353 1345 1338 1333 1330 1332 1335 1335 1336 1337 1338 1339 1341 1343 1345 1349 1350
1461 1457 1454 1453 1451 1450 1449 1448 1446 1443 1440 1437 1433 1429 1426 1422 1417 1411 1407 1401 1396 1389 1383 1374 1365 1355 1347 1341 1332 1325 1322 1323 1326 1326 1326 1327 1328 1330 1332 1334 1336 1340 1344
1460 1456 1453 1452 1450 1449 1447 1444 1442 1439 1436 1433 1429 1426 1422 1417 1412 1407 1403 1398 1393 1386 1381 1373 1364 1353 1344 1338 1331 1325 1321 1320 1318 1318 1316 1316 1317 1320 1323 1325 1328 1334 1339
1461 1458 1455 1452 1449 1448 1446 1443 1440 1437 1435 1432 1428 1424 1419 1416 1410 1404 1399 1394 1389 1384 1377 1370 1364 1355 1348 1340 1331 1327 1323 1318 1316 1313 1311 1309 1310 1312 1314 1318 1322 1326 1331
1461 1460 1458 1454 1451 1448 1446 1444 1442 1438 1435 1431 1427 1424 1419 1415 1409 1404 1399 1394 1388 1382 1376 1369 1363 1355 1347 1339 1332 1326 1321 1317 1312 1311 1308 1309 1310 1310 1311 1312 1316 1322 1328
1461 1460 1459 1457 1456 1454 1451 1448 1445 1442 1438 1433 1428 1426 1422 1416 1411 1405 1400 1396 1391 1382 1375 1368 1364 1358 1351 1343 1335 1327 1320 1313 1309 1311 1310 1312 1310 1309 1310 1313 1314 1318 1324
1462 1461 1459 1458 1457 1455 1453 1449 1446 1443 1439 1434 1430 1426 1421 1416 1411 1405 1400 1396 1390 1383 1375 1372 1369 1362 1356 1348 1338 1330 1324 1317 1311 1309 1311 1313 1312 1312 1310 1312 1314 1318 1322
1464 1461 1460 1459 1456 1454 1452 1448 1446 1442 1437 1433 1430 1425 1421 1415 1410 1405 1400 1395 1389 1383 1380 1375 1371 1367 1360 1353 1342 1335 1329 1321 1316 1310 1309 1310 1311 1311 1311 1311 1313 1314 1319
1464 1462 1461 1459 1457 1455 1452 1449 1446 1442 1438 1434 1429 1425 1420 1416 1411 1406 1400 1394 1392 1388 1384 1380 1375 1370 1364 1357 1349 1340 1332 1325 1320 1314 1311 1309 1308 1307 1307 1308 1310 1314 1318
1465 1463 1461 1459 1457 1454 1452 1449 1446 1443 1439 1435 1430 1426 1421 1416 1409 1405 1402 1398 1395 1392 1388 1383 1379 1373 1367 1359 1353 1344 1335 1328 1323 1318 1313 1310 1307 1303 1303 1305 1307 1313 1318
1465 1463 1461 1458 1456 1454 1452 1450 1448 1444 1441 1437 1434 1430 1425 1419 1414 1410 1406 1402 1398 1394 1390 1386 1381 1376 1370 1364 1357 1349 1340 1333 1326 1321 1317 1312 1308 1305 1306 1306 1310 1314 1318
1465 1463 1461 1459 1457 1455 1453 1451 1448 1445 1442 1439 1435 1431 1426 1422 1418 1414 1410 1406 1402 1398 1394 1389 1384 1379 1373 1367 1360 1353 1345 1338 1331 1325 1319 1314 1311 1308 1307 1310 1312 1315 1318
1466 1464 1462 1460 1458 1457 1454 1451 1449 1446 1443 1440 1437 1432 1428 1424 1421 1417 1413 1409 1405 1400 1396 1392 1386 1381 1376 1371 1366 1359 1351 1344 1338 1332 1324 1318 1316 1312 1311 1310 1314 1316 1319
1468 1466 1464 1461 1459 1457 1455 1453 1451 1449 1446 1442 1438 1434 1430 1427 1423 1420 1416 1411 1407 1403 1398 1394 1389 1384 1379 1373 1368 1364 1358 1351 1345 1340 1333 1326 1320 1317 1316 1318 1320 1321 1325
1471 1468 1465 1463 1460 1459 1457 1455 1453 1450 1447 1444 1440 1436 1433 1429 1425 1421 1417 1412 1408 1404 1399 1395 1390 1387 1382 1376 1371 1366 1361 1356 1350 1345 1339 1333 1328 1325 1326 1325 1327 1330 1332
1473 1470 1468 1466 1464 1462 1459 1457 1454 1451 1448 1445 1442 1438 1433 1429 1426 1422 1417 1413 1409 1405 1400 1396 1392 1388 1383 1378 1373 1368 1362 1357 1353 1350 1345 1338 1335 1331 1329 1330 1333 1334 1338